TimeCDT,TemperatureF,Dew PointF,Humidity,Sea Level PressureIn,VisibilityMPH,Wind Direction,Wind SpeedMPH,Gust SpeedMPH,PrecipitationIn,Events,Conditions,WindDirDegrees,DateUTC
12:56 AM,52.0,41.0,66,29.91,10.0,Calm,Calm,-,N/A,,Overcast,0,2013-03-22 05:56:00
1:56 AM,52.0,42.1,69,29.93,10.0,NNE,4.6,-,N/A,,Overcast,30,2013-03-22 06:56:00
2:56 AM,52.0,42.1,69,29.91,10.0,Calm,Calm,-,N/A,,Overcast,0,2013-03-22 07:56:00
3:56 AM,48.9,41.0,74,29.91,10.0,NNE,3.5,-,N/A,,Clear,20,2013-03-22 08:56:00
4:56 AM,51.1,43.0,74,29.89,10.0,Calm,Calm,-,N/A,,Overcast,0,2013-03-22 09:56:00
5:56 AM,52.0,43.0,71,29.91,7.0,ENE,8.1,-,N/A,,Overcast,70,2013-03-22 10:56:00
6:56 AM,53.1,39.0,59,29.90,7.0,East,11.5,-,N/A,,Overcast,100,2013-03-22 11:56:00
7:56 AM,55.0,39.0,55,29.91,7.0,ESE,11.5,-,N/A,,Overcast,120,2013-03-22 12:56:00
8:56 AM,57.0,42.1,57,29.91,7.0,East,15.0,-,N/A,,Overcast,100,2013-03-22 13:56:00
9:56 AM,59.0,42.1,53,29.92,7.0,ESE,15.0,-,N/A,,Overcast,110,2013-03-22 14:56:00
10:56 AM,62.1,44.1,52,29.93,7.0,SE,15.0,-,N/A,,Overcast,130,2013-03-22 15:56:00
11:56 AM,66.9,48.0,51,29.91,7.0,SE,21.9,-,N/A,,Mostly Cloudy,130,2013-03-22 16:56:00
12:56 PM,64.9,48.9,56,29.91,7.0,SE,12.7,21.9,N/A,,Overcast,130,2013-03-22 17:56:00
1:56 PM,64.9,50.0,58,29.89,7.0,SE,17.3,-,N/A,,Overcast,130,2013-03-22 18:56:00
2:56 PM,64.9,51.1,61,29.88,10.0,SE,10.4,-,N/A,,Overcast,140,2013-03-22 19:56:00
3:56 PM,62.1,55.0,78,29.87,5.0,SE,11.5,-,0.02,Rain,Light Rain,130,2013-03-22 20:56:00
4:53 PM,62.6,55.4,77,29.86,10.0,ESE,10.4,-,0.00,,Overcast,110,2013-03-22 21:53:00
4:56 PM,63.0,55.9,78,29.86,10.0,ESE,10.4,-,0.00,,Overcast,110,2013-03-22 21:56:00
5:12 PM,62.6,55.4,77,29.86,10.0,East,12.7,-,N/A,,Overcast,100,2013-03-22 22:12:00
5:36 PM,62.6,55.4,77,29.86,10.0,ESE,11.5,-,N/A,,Overcast,110,2013-03-22 22:36:00
5:56 PM,63.0,55.0,75,29.86,10.0,ESE,9.2,-,N/A,,Overcast,110,2013-03-22 22:56:00
6:56 PM,62.1,55.0,78,29.87,10.0,East,11.5,-,N/A,,Overcast,100,2013-03-22 23:56:00
7:56 PM,62.1,54.0,75,29.88,10.0,East,16.1,-,N/A,,Overcast,100,2013-03-23 00:56:00
8:56 PM,60.1,53.1,78,29.88,10.0,ESE,13.8,23.0,N/A,,Overcast,120,2013-03-23 01:56:00
9:56 PM,60.1,53.1,78,29.88,10.0,ESE,12.7,-,N/A,,Overcast,110,2013-03-23 02:56:00
10:56 PM,60.8,53.6,77,29.90,10.0,ESE,12.7,-,N/A,,Overcast,110,2013-03-23 03:56:00
11:12 PM,60.8,53.6,77,29.89,10.0,ESE,13.8,-,N/A,,Overcast,120,2013-03-23 04:12:00
11:56 PM,61.0,53.1,75,29.89,10.0,ESE,9.2,-,N/A,,Overcast,110,2013-03-23 04:56:00